Frederick, MD

10:14 AM EDT on May 23, 2017 (GMT -0400)
Frederick Municipal

Weather History for KFDK - March, 2013

Change the Weather History Date:

Friday, March 29, 2013

  Actual Average (KHGR) Record (KHGR)
Temperature  
Mean Temperature 44 °F -  
Max Temperature 55 °F 55 °F 82 °F (1998)
Min Temperature 33 °F 37 °F 20 °F (2015)
Degree Days  
Heating Degree Days 21    
Moisture  
Dew Point 31 °F    
Average Humidity 68    
Maximum Humidity 93    
Minimum Humidity 36    
Precipitation  
Precipitation 0.00 in - - ()
Sea Level Pressure  
Sea Level Pressure 30.24 in    
Wind  
Wind Speed 5 mph (NW)    
Max Wind Speed 10 mph    
Max Gust Speed 23 mph    
Visibility 10 miles    
Events      
Averages and records for this station are not official NWS values.
T = Trace of Precipitation, MM = Missing Value Source: NWS Daily Summary

Daily Weather History Graph

Daily Weather History Graph

Search for Another Location

Airport or City:

Trip Planner

Search our weather history database for the weather conditions in past years. The results will help you decide how hot, cold, wet, or windy it might be!

Date:

Astronomy

Mar. 29, 2013 Rise Set
Actual Time 6:58 AM EDT 7:30 PM EDT
Civil Twilight 6:31 AM EDT 7:57 PM EDT
Nautical Twilight 5:59 AM EDT 8:29 PM EDT
Astronomical Twilight 5:26 AM EDT 9:02 PM EDT
Moon 10:27 PM EDT (3/29) 8:06 AM EDT (3/29)
Length of Visible Light 13h 26m
Length of Day
12h 32m
Waning Gibbous, 93% of the Moon is Illuminated
Mar 29
Waning Gibbous
Apr 3
Last Quarter
Apr 10
New
Apr 18
First Quarter
Apr 25
Full

Hourly Weather History & Observations

Time (EDT) Temp. Windchill Dew Point Humidity Pressure Visibility Wind Dir Wind Speed Gust Speed Precip Events Conditions
12:05 AM 41.0 °F 37.1 °F 32.0 °F 70% 30.25 in 10.0 mi WNW 5.8 mph - N/A   Overcast
12:25 AM 41.0 °F 38.0 °F 32.0 °F 70% 30.26 in 10.0 mi WNW 4.6 mph - N/A   Overcast
12:45 AM 41.0 °F 38.0 °F 32.0 °F 70% 30.26 in 10.0 mi WNW 4.6 mph - N/A   Overcast
1:05 AM 41.0 °F 38.0 °F 32.0 °F 70% 30.26 in 10.0 mi WNW 4.6 mph - N/A   Overcast
1:25 AM 41.0 °F 38.0 °F 32.0 °F 70% 30.26 in 10.0 mi West 4.6 mph - N/A   Overcast
1:45 AM 39.2 °F 35.9 °F 32.0 °F 75% 30.26 in 10.0 mi WNW 4.6 mph - N/A   Overcast
2:05 AM 41.0 °F 38.0 °F 32.0 °F 70% 30.27 in 10.0 mi NW 4.6 mph - N/A   Overcast
2:25 AM 41.0 °F 38.0 °F 32.0 °F 70% 30.27 in 10.0 mi NNW 4.6 mph - N/A   Overcast
2:45 AM 41.0 °F 36.4 °F 32.0 °F 70% 30.27 in 10.0 mi NNW 6.9 mph - N/A   Overcast
3:05 AM 41.0 °F 37.1 °F 30.2 °F 65% 30.26 in 10.0 mi North 5.8 mph - N/A   Overcast
3:25 AM 41.0 °F 35.8 °F 28.4 °F 61% 30.26 in 10.0 mi NNW 8.1 mph - N/A   Overcast
3:45 AM 41.0 °F 37.1 °F 28.4 °F 61% 30.26 in 10.0 mi North 5.8 mph - N/A   Overcast
4:05 AM 41.0 °F 37.1 °F 28.4 °F 61% 30.25 in 10.0 mi NNW 5.8 mph - N/A   Overcast
4:25 AM 41.0 °F 39.0 °F 28.4 °F 61% 30.25 in 10.0 mi NNW 3.5 mph - N/A   Overcast
4:45 AM 39.2 °F 37.0 °F 28.4 °F 65% 30.25 in 10.0 mi NW 3.5 mph - N/A   Overcast
5:05 AM 37.4 °F 32.8 °F 30.2 °F 75% 30.25 in 10.0 mi West 5.8 mph - N/A   Overcast
5:25 AM 39.2 °F 35.0 °F 30.2 °F 70% 30.26 in 10.0 mi WNW 5.8 mph - N/A   Overcast
5:45 AM 39.2 °F 37.0 °F 30.2 °F 70% 30.25 in 10.0 mi WNW 3.5 mph - N/A   Overcast
6:05 AM 37.4 °F 34.9 °F 30.2 °F 75% 30.25 in 10.0 mi WNW 3.5 mph - N/A   Overcast
6:25 AM 35.6 °F - 30.2 °F 81% 30.26 in 10.0 mi Calm Calm - N/A   Overcast
6:45 AM 35.6 °F - 30.2 °F 81% 30.26 in 10.0 mi Calm Calm - N/A   Overcast
7:45 AM 39.2 °F 35.9 °F 32.0 °F 75% 30.27 in 10.0 mi WNW 4.6 mph - N/A   Mostly Cloudy
8:50 AM 42.8 °F 37.5 °F 32.0 °F 66% 30.28 in 10.0 mi NNW 9.2 mph - N/A   Mostly Cloudy
9:45 AM 46.4 °F 42.9 °F 32.0 °F 57% 30.28 in 10.0 mi NNW 6.9 mph - N/A   Mostly Cloudy
10:45 AM 48.2 °F - 33.8 °F 58% 30.27 in 10.0 mi NW 9.2 mph - N/A   Mostly Cloudy
11:50 AM 50.0 °F - 32.0 °F 50% 30.25 in 10.0 mi NNW 10.4 mph - N/A   Mostly Cloudy
12:45 PM 53.6 °F - 30.2 °F 41% 30.23 in 10.0 mi NNW 10.4 mph - N/A   Scattered Clouds
1:45 PM 53.6 °F - 30.2 °F 41% 30.21 in 10.0 mi North 10.4 mph 23.0 mph N/A   Mostly Cloudy
3:47 PM 53.6 °F - 30.2 °F 41% 30.18 in 10.0 mi NNW 9.2 mph - N/A   Overcast
4:55 PM 55.4 °F - 28.4 °F 36% 30.17 in 10.0 mi NW 10.4 mph - N/A   Mostly Cloudy
5:50 PM 53.6 °F - 28.4 °F 38% 30.16 in 10.0 mi NNW 9.2 mph - N/A   Scattered Clouds
6:52 PM 51.8 °F - 28.4 °F 41% 30.17 in 10.0 mi NNW 6.9 mph - N/A   Mostly Cloudy
7:52 PM 46.4 °F - 28.4 °F 50% 30.18 in 10.0 mi Calm Calm - N/A   Mostly Cloudy
9:05 PM 35.6 °F - 32.0 °F 87% 30.20 in 10.0 mi Calm Calm - N/A   Scattered Clouds
9:30 PM 37.4 °F - 32.0 °F 81% 30.21 in 10.0 mi Calm Calm - N/A   Mostly Cloudy
9:50 PM 35.6 °F - 32.0 °F 87% 30.22 in 10.0 mi Calm Calm - N/A   Mostly Cloudy
10:10 PM 33.8 °F - 32.0 °F 93% 30.22 in 10.0 mi Calm Calm - N/A   Overcast
10:30 PM 35.6 °F - 33.8 °F 93% 30.22 in 10.0 mi Calm Calm - N/A   Overcast
10:50 PM 35.6 °F - 33.8 °F 93% 30.22 in 10.0 mi Calm Calm - N/A   Overcast
11:10 PM 33.8 °F 30.8 °F 32.0 °F 93% 30.22 in 10.0 mi South 3.5 mph - N/A   Mostly Cloudy
11:30 PM 35.6 °F 32.8 °F 32.0 °F 87% 30.22 in 10.0 mi South 3.5 mph - N/A   Mostly Cloudy
11:50 PM 35.6 °F 32.8 °F 32.0 °F 87% 30.22 in 10.0 mi SE 3.5 mph - N/A   Overcast